Location: Artiguedieu
(43.5000°N, 0.5454°E)
Time: 08:19:51
(UTC+00:00)

Explorer 7 - Pass Details

Date: 02 August 2021
Orbit: 484 x 676 km, 50.3° (Epoch: 22 September)

Event Time Altitude Azimuth Distance (km) Brightness Sun altitude
Rises 06:57:52 0° 281° (W) 2,588 9.7 21.7°
Reaches altitude 10° 07:00:12 10° 292° (WNW) 1,727 8.9 22.1°
Maximum altitude 07:03:42 31° 356° (N) 945 8.2 22.7°
Drops below altitude 10° 07:07:24 10° 59° (ENE) 1,818 10.7 23.4°
Sets 07:09:54 0° 70° (ENE) 2,750 11.6 23.9°
